Flag for U.S.A. Weather past 2 weeks in Hialeah, Florida, U.S.A.

Now
58 °F

Sunny.


Feels Like: 55 °F
Forecast: 53 / 68 °F
Wind: 13 mph from North

Location: Opa Locka Airport

Current Time: Jan 28, 2015 at 10:16:55 AM

Latest Report: Jan 28, 2015 at 8:53 AM


Visibility: 10 mi

Pressure: 30.16 "Hg

Humidity: 51%

Dew point: 40 °F

Location of HialeahLocation

Historic Weather in Hialeah — Graph

°F

Hialeah temperature yesterday

Maximum temperature yesterday: 70 °F (at 3:53 PM)
Minimum temperature yesterday: 54 °F (at 5:53 AM)
Average temperature yesterday: 61 °F

Past Weeks' High & Low Weather Summary

 TemperatureHumidityPressure
High81 °F (Jan 21, 11:53 AM)100% (Jan 13, 8:53 AM)30.19 "Hg (Jan 13, 8:53 AM)
Low51 °F (Jan 25, 5:53 AM)25% (Jan 27, 2:53 PM)29.86 "Hg (Jan 26, 2:53 PM)
Average67 °F72%30.06 "Hg
* Reported Jan 13 8:53 AM — Jan 28 8:53 AM, Hialeah, Weather by CustomWeather, © 2014

Note: Actual official high and low records may vary slightly from our data, if they occured in-between our weather recording intervals... More about our weather records

Advertising

Hialeah weather history for previous 24 hours

 ConditionsComfort  
Time TempWeatherWind HumidityBarometerVisibility
8:53 AM
Jan 28
58 °FSunny.13 mph51%30.16 "Hg10 mi
7:53 AM54 °FSunny.8 mph67%30.14 "Hg10 mi
6:53 AM53 °FClear.7 mph69%30.13 "Hg10 mi
5:53 AM55 °FClear.10 mph67%30.10 "Hg10 mi
4:53 AM56 °FClear.12 mph81%30.07 "Hg10 mi
3:53 AM58 °FClear.10 mph81%30.06 "Hg10 mi
2:53 AM60 °FPassing clouds.16 mph83%30.06 "Hg10 mi
1:53 AM58 °FPartly cloudy.6 mph87%30.05 "Hg10 mi
12:53 AM59 °FPassing clouds.8 mph84%30.05 "Hg10 mi
11:53 PM
Jan 27
58 °FPassing clouds.7 mph81%30.06 "Hg10 mi
10:53 PM58 °FClear.8 mph81%30.06 "Hg10 mi
9:53 PM59 °FClear.7 mph78%30.06 "Hg10 mi
8:53 PM60 °FClear.8 mph72%30.05 "Hg10 mi
7:53 PM62 °FClear.8 mph65%30.03 "Hg10 mi
6:53 PM64 °FClear.10 mph56%30.02 "Hg10 mi
5:53 PM67 °FSunny.10 mph42%30.00 "Hg10 mi
4:53 PM69 °FSunny.14 mph29%29.99 "Hg10 mi
3:53 PM70 °FSunny.12 mph27%29.99 "Hg10 mi
2:53 PM69 °FSunny.13 mph25%29.99 "Hg10 mi
1:53 PM67 °FSunny.12 mph26%30.02 "Hg10 mi
12:53 PM66 °FSunny.12 mph26%30.04 "Hg10 mi
11:53 AM65 °FSunny.14 mph28%30.07 "Hg10 mi
10:53 AM63 °FSunny.15 mph29%30.08 "Hg10 mi
Weather by CustomWeather, © 2014

See weather overviewHow to use our weather pages